Home   Weather   Marmaris   Past weeks
Flag for Turkey

Past Weather in Marmaris, Turkey — July 2016

Now
78 °F

Sunny.


Feels Like: 80 °F
Forecast: 89 / 68 °F
Wind: 5 mph from West

Location: Marmaris

Current Time: Sep 20, 2019 at 10:54:11 am

Latest Report: Sep 20, 2019 at 10:00 am


Visibility: 13 mi

Pressure: 29.90 "Hg

Humidity: 56%

Dew Point: 61 °F

Location of MarmarisLocation

July 2016 Weather in Marmaris — Graph

°F

High & Low Weather Summary for July 2016

 TemperatureHumidityPressure
High101 °F (Jul 5, 3:00 pm)87% (Jul 17, 5:00 am)30.12 "Hg (Jul 17, 5:00 am)
Low74 °F (Jul 20, 6:00 am)20% (Jul 5, 6:00 pm)29.57 "Hg (Jul 19, 6:00 am)
Average85 °F52%29.71 "Hg
* Reported Jul 1 12:00 am — Jul 31 11:00 pm, Marmaris. Weather by CustomWeather, © 2019

Note: Actual official high and low records may vary slightly from our data, if they occured in-between our weather recording intervals... More about our weather records

Advertising

Marmaris Weather History for July 1, 2016

Scroll right to see more
 ConditionsComfort  
Time TempWeatherWind HumidityBarometerVisibility
12:00 am
Fri, Jul 1
79 °FClear.6 mph68%29.85 "Hg12 mi
1:00 am79 °FClear.2 mph68%29.84 "Hg12 mi
2:00 am78 °FClear.7 mph71%29.84 "Hg12 mi
3:00 am77 °FClear.6 mph73%29.83 "Hg12 mi
4:00 am77 °FClear.7 mph72%29.82 "Hg12 mi
5:00 am77 °FClear.7 mph74%29.82 "Hg12 mi
6:00 am77 °FSunny.7 mph74%29.82 "Hg12 mi
7:00 am77 °FSunny.6 mph72%29.83 "Hg12 mi
8:00 am80 °FSunny.5 mph66%29.84 "Hg12 mi
9:00 am84 °FSunny.5 mph56%29.84 "Hg12 mi
10:00 am90 °FSunny.3 mph38%29.83 "Hg12 mi
11:00 am93 °FSunny.5 mph35%29.83 "Hg12 mi
12:00 pm93 °FSunny.5 mph39%29.82 "Hg12 mi
1:00 pm94 °FSunny.3 mph37%30.12 "Hg12 mi
2:00 pm94 °FSunny.5 mph36%29.81 "Hg12 mi
3:00 pm95 °FSunny.5 mph36%29.80 "Hg12 mi
4:00 pm93 °FSunny.7 mph37%29.80 "Hg12 mi
5:00 pm93 °FSunny.6 mph36%29.80 "Hg12 mi
6:00 pm92 °FSunny.6 mph36%29.78 "Hg12 mi
7:00 pm90 °FSunny.8 mph38%29.78 "Hg12 mi
8:00 pm88 °FSunny.2 mph43%29.79 "Hg12 mi
9:00 pm85 °FClear.3 mph51%29.79 "Hg12 mi
10:00 pm82 °FClear.1 mph57%29.81 "Hg12 mi
11:00 pm83 °FClear.5 mph57%29.82 "Hg12 mi
Weather by CustomWeather, © 2019

See weather overview